Regional Weather Roundup
Issued by NWS

Home | Current Version | Previous Version | Text Only | Print | Product List | Glossary On
Versions: 1 2 3 4 5 6 7 8 9 10 11 12 13 14 15 16 17 18 19 20 21 22 23 24 25 26 27 28 29 30 31 32 33 34 35 36 37 38 39 40 41 42 43 44 45 46 47 48 49 50
000
ASUS44 KBMX 210110
RWRAL

ALABAMA REGIONAL WEATHER ROUNDUP
NATIONAL WEATHER SERVICE BIRMINGHAM AL
800 PM CDT MON APR 20 2015

NOTE: "FAIR" INDICATES FEW OR NO CLOUDS BELOW 12,000 FEET
WITH NO SIGNIFICANT WEATHER AND/OR OBSTRUCTIONS TO VISIBILITY.

THE REMARK "TC" DENOTES TEMPERATURE IN DEGREES CELSIUS.

ALZ001>011-014-016>018-020-210200-
NORTH ALABAMA

CITY           SKY/WX    TMP DP  RH WIND       PRES   REMARKS
MUSCLE SHOALS  PTCLDY    56  42  59 NW8       29.87R
HUNTSVILLE     PTCLDY    58  46  64 W3        29.86R
DECATUR        CLEAR     60  45  57 W7        29.86R
HALEYVILLE       N/A     56  44  64 CALM      29.90R
GADSDEN        CLEAR     63  45  51 W9        29.84R
$$

ALZ012-013-022-023-030>036-040>044-210200-
WEST CENTRAL ALABAMA

CITY           SKY/WX    TMP DP  RH WIND       PRES   REMARKS
TUSCALOOSA     CLEAR     63  46  54 NW6       29.89R
$$

ALZ015-024>027-033>036-040>044-210200-
CENTRAL ALABAMA

CITY           SKY/WX    TMP DP  RH WIND       PRES   REMARKS
BIRMINGHAM     PTCLDY    63  48  58 W9        29.89R
MONTGOMERY     CLEAR     68  52  56 W8        29.85R
SHELBY CO ARPT CLEAR     64  49  57 NW7       29.87R
MAXWELL AFB    CLEAR     69  53  57 W5        29.84R
GREENVILLE     FAIR      70  53  54 NW8       29.85R
$$

ALZ019-021-028-029-037-038-045>048-210200-
EAST CENTRAL ALABAMA

CITY           SKY/WX    TMP DP  RH WIND       PRES   REMARKS
ANNISTON       CLEAR     64  45  49 W8        29.84R
ALEXANDER CITY CLEAR     69  52  53 NW7       29.85R
AUBURN         CLEAR     66  50  55 NW8       29.85R
$$

ALZ051>064-210200-
SOUTHWEST ALABAMA

CITY           SKY/WX    TMP DP  RH WIND       PRES   REMARKS
MOBILE         MOCLDY    69  57  65 NW5       29.89R
BROOKLEY FIELD PTCLDY    72  55  55 NW8       29.88R
EVERGREEN      PTCLDY    70  56  61 VRB5      29.86R
$$

ALZ049-050-065>069-210200-
SOUTHEAST ALABAMA

CITY           SKY/WX    TMP DP  RH WIND       PRES   REMARKS
DOTHAN         MOCLDY    71  66  84 W8        29.86R
OZARK          PTCLDY    70  64  80 SW6       29.83R
TROY           PTCLDY    70  58  65 W3        29.84R
EUFAULA        FAIR      70  61  73 W3        29.81R
$$


USA.gov is the U.S. government's official web portal to all federal, state and local government web resources and services.